Powrót do katalogu

QIANFAN-208

AktywnyŁącznośćPO
NORAD 69807·PAYLOAD·🇨🇳 China

Wystrzelony Jul 4, 2026 z Taiyuan Satellite Launch Center

Loading…

Następne Przeloty (najbliższe 24 godziny)

TLE

ŚwieżeSource: Space-Track

Epoka: Sep 14, 2026, 19:01 UTC

1 69807U 26153H   26257.79272279 -.01794797  00000-0 -13339+1 0  9999
2 69807  88.9973 352.0882 0005550  95.1028 265.0784 13.99319652 10263

Śledź QIANFAN-208 w czasie rzeczywistym z AllMySat

Download on the App Store